Terminal Aerodrome Forecast
Issued by NWS Omaha/Valley, NE

Home | Current Version | Previous Version | Graphics & Text | Print | Product List | Glossary On
Versions: 1 2 3 4 5 6 7 8 9 10 11 12 13 14 15 16 17 18 19 20 21 22 23 24 25 26 27 28 29 30 31 32 33 34 35 36 37 38 39 40 41 42 43 44 45 46 47 48 49
000
FTUS43 KOAX 051916 AAB
TAFOFK
TAF AMD
KOFK 051916Z 0519/0618 20011KT P6SM SCT015 BKN070
      TEMPO 0522/0602 4SM -SN OVC015
     FM060200 33006KT P6SM SCT250
      TEMPO 0609/0613 4SM BR
     FM061300 21008KT P6SM SCT250=

USA.gov is the U.S. government's official web portal to all federal, state and local government web resources and services.